FW3958 Weather Reports


Display with metric or nautical units.
time (UTC)temp
F
wind
direction
speed
MPH
gust
MPH
rain 1hr
in
rain 24hr
in
rain mn
in
humidity
%
barometer
mb
20260901154525 60 178 0.0 3.0 0.00 0.00 0.00 97 1013.4
20260901153023 60 178 1.0 3.0 0.00 0.00 0.00 97 1013.3
20260901151523 59 176 1.0 4.0 0.00 0.00 0.00 98 1013.4
20260901150022 59 171 0.0 2.0 0.00 0.00 0.00 100 1013.2
20260901144521 59 174 0.0 3.0 0.00 0.00 0.00 100 1013.1
20260901143020 58 175 2.0 5.0 0.00 0.00 0.00 100 1013.3
20260901141519 58 182 1.0 4.0 0.00 0.00 0.00 100 1013.2
20260901140022 58 180 0.0 4.0 0.00 0.00 0.00 100 1013.1
20260901134518 57 176 0.0 2.0 0.00 0.00 0.00 100 1013.0
20260901133016 57 176 0.0 1.0 0.00 0.00 0.00 100 1013.1
20260901131523 57 176 0.0 1.0 0.00 0.00 0.00 100 1013.0
20260901130014 58 176 0.0 1.0 0.00 0.00 0.00 100 1013.0
20260901124514 58 176 0.0 2.0 0.00 0.00 0.00 100 1013.1
20260901123012 58 176 2.0 4.0 0.00 0.00 0.00 100 1013.2
20260901121511 58 191 2.0 4.0 0.00 0.00 0.00 100 1013.2
20260901120010 58 182 1.0 6.0 0.00 0.00 0.00 100 1013.2
20260901114510 58 180 2.0 6.0 0.00 0.00 0.00 100 1013.2
20260901113009 58 203 1.0 6.0 0.00 0.00 0.00 100 1013.2
20260901111507 58 207 1.0 4.0 0.00 0.00 0.00 99 1013.2
20260901110005 59 211 0.0 3.0 0.00 0.00 0.00 99 1013.1
20260901104504 59 211 1.0 4.0 0.00 0.00 0.00 99 1012.9
20260901103002 59 211 2.0 5.0 0.00 0.00 0.00 98 1012.9
20260901101502 59 219 1.0 4.0 0.00 0.00 0.00 97 1012.9
20260901100110 59 182 1.0 6.0 0.00 0.00 0.00 97 1012.9
20260901094603 59 178 1.0 6.0 0.00 0.00 0.00 96 1012.8
20260901093057 59 189 1.0 4.0 0.00 0.00 0.00 96 1012.8
20260901091557 59 185 1.0 7.0 0.00 0.00 0.00 96 1012.9
20260901084607 59 182 3.0 7.0 0.00 0.00 0.00 96 1013.0
20260901083052 60 190 2.0 9.0 0.00 0.00 0.00 96 1013.0
20260901081550 60 199 2.0 7.0 0.00 0.00 0.00 96 1013.0
20260901080051 60 210 4.0 9.0 0.00 0.00 0.00 96 1013.1
20260901074547 59 209 2.0 7.0 0.00 0.00 0.00 97 1013.0
20260901073045 60 209 3.0 6.0 0.00 0.00 0.00 97 1012.8
20260901071545 60 212 2.0 6.0 0.00 0.00 0.00 97 1012.7
20260901070042 60 206 1.0 4.0 0.00 0.00 0.00 97 1012.6
20260901064541 60 203 2.0 8.0 0.00 0.00 0.00 97 1012.8
20260901063040 60 203 1.0 4.0 0.00 0.00 0.00 98 1012.7
20260901061548 60 211 1.0 3.0 0.00 0.00 0.00 98 1012.8
20260901060046 60 203 2.0 7.0 0.00 0.00 0.00 98 1012.8
20260901054538 60 232 3.0 7.0 0.00 0.00 0.00 98 1012.7
20260901053047 60 212 3.0 7.0 0.00 0.00 0.00 98 1012.7
20260901051540 60 204 2.0 6.0 0.00 0.00 0.00 98 1012.6
20260901050040 60 208 1.0 7.0 0.00 0.00 0.00 98 1012.7
20260901044536 60 216 3.0 7.0 0.00 0.00 0.00 98 1012.8
20260901043036 60 201 1.0 4.0 0.00 0.00 0.00 98 1012.6
20260901041535 60 198 1.0 4.0 0.00 0.00 0.00 98 1012.5
20260901040037 60 210 0.0 3.0 0.00 0.00 0.00 97 1012.3
20260901034536 60 213 0.0 3.0 0.00 0.00 0.00 97 1012.1
20260901033034 60 204 1.0 4.0 0.00 0.00 0.00 97 1012.1
20260901031547 60 204 0.0 3.0 0.00 0.00 0.00 97 1011.9
20260901030033 61 215 0.0 1.0 0.00 0.00 0.00 96 1011.9
20260901024533 61 207 1.0 4.0 0.00 0.00 0.00 96 1012.0
20260901023037 61 213 2.0 8.0 0.00 0.00 0.00 95 1012.1
20260901021531 62 257 1.0 6.0 0.00 0.00 0.00 93 1012.1
20260901020031 63 211 3.0 7.0 0.00 0.00 0.00 92 1012.1
20260901014531 65 201 2.0 7.0 0.00 0.00 0.00 88 1012.0
20260901013032 68 201 2.0 9.0 0.00 0.00 0.00 82 1011.9
20260901011528 68 234 0.0 3.0 0.00 0.00 0.00 82 1011.8
20260901010035 69 280 2.0 8.0 0.00 0.00 0.00 81 1011.6
20260901004527 69 275 2.0 8.0 0.00 0.00 0.00 76 1011.5
20260901003025 69 298 3.0 8.0 0.00 0.00 0.00 76 1011.4
20260901001525 70 288 4.0 9.0 0.00 0.00 0.00 75 1011.3
20260901000022 72 302 4.0 7.0 0.00 0.00 0.00 75 1011.4
20260831234620 72 295 4.0 8.0 0.00 0.00 0.00 75 1011.1
20260831233018 72 309 3.0 8.0 0.00 0.00 0.00 74 1011.1
20260831231517 72 326 4.0 9.0 0.00 0.00 0.00 75 1011.3
20260831230016 72 326 6.0 10.0 0.00 0.00 0.00 74 1011.1
20260831224514 73 344 3.0 11.0 0.00 0.00 0.00 74 1011.1
20260831223018 74 330 5.0 8.0 0.00 0.00 0.00 71 1011.0
20260831221522 74 26 4.0 10.0 0.00 0.00 0.00 71 1010.9
20260831220010 75 311 7.0 10.0 0.00 0.00 0.00 69 1010.9
20260831214506 76 5 2.0 9.0 0.00 0.00 0.00 67 1011.1
20260831213003 76 16 2.0 5.0 0.00 0.00 0.00 64 1011.4
20260831211614 76 12 1.0 6.0 0.00 0.00 0.00 64 1011.4
20260831210057 74 359 3.0 8.0 0.00 0.00 0.00 67 1011.5
20260831204556 74 282 0.0 8.0 0.00 0.00 0.00 67 1011.5
20260831203052 74 333 0.0 9.0 0.00 0.00 0.00 66 1011.7
20260831201553 73 317 2.0 8.0 0.00 0.00 0.00 69 1012.0
20260831200045 72 316 3.0 10.0 0.00 0.00 0.00 71 1012.1
20260831194618 71 12 4.0 10.0 0.00 0.00 0.00 69 1012.2
20260831193042 71 347 2.0 10.0 0.00 0.00 0.00 70 1012.2
20260831191539 71 11 3.0 12.0 0.00 0.00 0.00 72 1012.5
20260831190040 70 7 3.0 7.0 0.00 0.00 0.00 73 1012.7
20260831184544 71 322 2.0 7.0 0.00 0.00 0.00 71 1012.9
20260831183034 70 19 0.0 1.0 0.00 0.00 0.00 72 1013.0
20260831181533 70 6 2.0 8.0 0.00 0.00 0.00 70 1013.2
20260831180029 69 46 0.0 8.0 0.00 0.00 0.00 73 1013.2
20260831174543 69 282 0.0 3.0 0.00 0.00 0.00 75 1013.2
20260831173023 68 355 0.0 3.0 0.00 0.00 0.00 78 1013.4
20260831171537 67 90 0.0 0.0 0.00 0.00 0.00 78 1013.5
20260831170045 66 95 0.0 0.0 0.00 0.00 0.00 84 1013.5
20260831164513 65 85 0.0 0.0 0.00 0.00 0.00 88 1013.6
20260831163010 63 46 0.0 2.0 0.00 0.00 0.00 92 1013.7
20260831161505 62 90 0.0 2.0 0.00 0.00 0.00 96 1013.9
20260831160001 59 52 0.0 0.0 0.00 0.00 0.00 99 1014.0